This is the latest recevied weather packets stored in our database for station/object NEWPRT. If no packets are shown the sender has not sent any weather packets the latest 10 day(s).
| Time | Temp. | Humidity | Pressure | Rain* | Wind** | Luminosity | Snow |
|---|---|---|---|---|---|---|---|
| 1777730303 | - | 76% | 1016.5 hPa | 0 mm | - | - | - |
| 1777729981 | - | 76% | 1016.8 hPa | 0 mm | - | - | - |
| 1777729657 | - | 77% | 1016.6 hPa | 0 mm | - | - | - |
| 1777729334 | - | 76% | 1016.6 hPa | 0 mm | - | - | - |
| 1777729011 | - | 76% | 1016.4 hPa | 0 mm | - | - | - |
| 1777728689 | - | 75% | 1016.5 hPa | 0 mm | - | - | - |
| 1777728365 | - | 74% | 1016.5 hPa | 0 mm | - | - | - |
| 1777728042 | - | 72% | 1016.5 hPa | 0 mm | - | - | - |
| 1777727719 | - | 72% | 1016.4 hPa | 0 mm | - | - | - |
| 1777727396 | - | 73% | 1016.4 hPa | 0 mm | - | - | - |
| 1777727073 | - | 72% | 1016.6 hPa | 0 mm | - | - | - |
| 1777726750 | - | 69% | 1016.4 hPa | 0 mm | - | - | - |
| 1777726427 | - | 70% | 1016.5 hPa | 0 mm | - | - | - |
| 1777726104 | - | 69% | 1016.5 hPa | 0 mm | - | - | - |
| 1777725781 | - | 70% | 1016.7 hPa | 0 mm | - | - | - |
| 1777725459 | - | 68% | 1016.8 hPa | 0 mm | - | - | - |
| 1777725135 | - | 69% | 1016.7 hPa | 0 mm | - | - | - |
| 1777724812 | - | 70% | 1016.7 hPa | 0 mm | - | - | - |
| 1777724489 | - | 68% | 1016.8 hPa | 0 mm | - | - | - |
| 1777724166 | - | 69% | 1016.8 hPa | 0 mm | - | - | - |
| 1777723843 | - | 68% | 1016.7 hPa | 0 mm | - | - | - |
| 1777723520 | - | 68% | 1016.7 hPa | 0 mm | - | - | - |
| 1777723198 | - | 67% | 1016.6 hPa | 0 mm | - | - | - |
| 1777722875 | - | 70% | 1016.7 hPa | 0 mm | - | - | - |
| 1777722553 | - | 70% | 1016.7 hPa | 0 mm | - | - | - |
* Rain latest hour (hover to see other rain measurements)
** Current wind speed in m/s (hover to see current wind gust speed)